Location: Bergnerzell
(49.1816°N, 10.2565°E)
Time: 04:44:14
(UTC+00:00)

Cosmos 1825 - Pass Details

Date: 17 August 2024
Orbit: 422 x 426 km, 82.5° (Epoch: 09 September)

Event Time Altitude Azimuth Distance (km) Brightness Sun altitude
Rises 01:44:21 0° 353° (N) 2,403 6.3 -20.2°
Reaches altitude 10° 01:46:26 10° 358° (N) 1,529 5.3 -20.0°
Maximum altitude 01:49:43 57° 78° (ENE) 505 2.3 -19.6°
Enters shadow 01:50:40 39° 136° (SE) 656 2.6 -19.6°
